Sheridan, WY

2:28 AM MDT on May 22, 2018 (GMT -0600)
Sheridan County

Weather History for KSHR - May, 2014

Change the Weather History Date:

Thursday, May 29, 2014

  Actual Average Record
Temperature  
Mean Temperature 66 °F 56 °F  
Max Temperature 74 °F 70 °F 94 °F (1919)
Min Temperature 58 °F 42 °F 26 °F (1982)
Degree Days  
Heating Degree Days 0 9  
Month to date heating degree days 348 375  
Since 1 July heating degree days 7715 7476  
Cooling Degree Days 1 0  
Month to date cooling degree days 8 0  
Year to date cooling degree days 8 0  
Growing Degree Days 15 (Base 50)    
Moisture  
Dew Point 49 °F    
Average Humidity 56    
Maximum Humidity 80    
Minimum Humidity 31    
Precipitation  
Precipitation 0.00 in 0.07 in 1.12 in (1938)
Month to date precipitation 1.58 2.19  
Year to date precipitation 6.66 5.87  
Sea Level Pressure  
Sea Level Pressure 29.90 in    
Wind  
Wind Speed 9 mph (NNW)    
Max Wind Speed 35 mph    
Max Gust Speed 42 mph    
Visibility 10 miles    
Events      
T = Trace of Precipitation, MM = Missing Value Source: NWS Daily Summary

Daily Weather History Graph

Daily Weather History Graph

Search for Another Location

Airport or City:

Astronomy

May. 29, 2014 Rise Set
Actual Time 5:27 AM MDT 8:44 PM MDT
Civil Twilight 4:51 AM MDT 9:20 PM MDT
Nautical Twilight 4:04 AM MDT 10:06 PM MDT
Astronomical Twilight 3:07 AM MDT 11:04 PM MDT
Moon 6:25 AM MDT (5/29) 9:34 PM MDT (5/29)
Length of Visible Light 16h 28m
Length of Day
15h 17m
New Moon, 1% of the Moon is Illuminated
May 29
New Moon
Jun 5
First Quarter
Jun 12
Full
Jun 19
Last Quarter
Jun 27
New

Hourly Weather History & Observations

Time (MDT) Temp. Dew Point Humidity Pressure Visibility Wind Dir Wind Speed Gust Speed Precip Events Conditions
12:53 AM 73.0 °F 41.0 °F 31% 29.66 in 10.0 mi SE 12.7 mph 21.9 mph N/A   Clear
1:53 AM 69.8 °F 42.8 °F 38% 29.79 in 10.0 mi South 4.6 mph - N/A   Clear
2:53 AM 70.0 °F 41.0 °F 35% 29.65 in 10.0 mi SE 8.1 mph - N/A   Clear
3:53 AM 71.1 °F 39.9 °F 32% 29.64 in 10.0 mi SE 9.2 mph - N/A   Clear
4:53 AM 59.0 °F 45.0 °F 60% 29.70 in 10.0 mi WSW 5.8 mph - N/A   Clear
5:53 AM 64.9 °F 45.0 °F 48% 29.76 in 10.0 mi NW 21.9 mph 34.5 mph N/A   Clear
6:53 AM 61.0 °F 52.0 °F 72% 29.83 in 10.0 mi NNW 19.6 mph 34.5 mph N/A   Clear
7:53 AM 61.0 °F 51.1 °F 70% 29.86 in 10.0 mi WNW 16.1 mph - N/A   Clear
8:53 AM 60.1 °F 48.0 °F 64% 29.91 in 10.0 mi NW 18.4 mph - N/A   Clear
9:53 AM 62.1 °F 50.0 °F 65% 29.88 in 10.0 mi NW 11.5 mph - N/A   Clear
10:53 AM 64.0 °F 48.9 °F 58% 29.91 in 10.0 mi NW 16.1 mph - N/A   Clear
11:53 AM 64.9 °F 48.0 °F 54% 29.92 in 10.0 mi NW 12.7 mph - N/A   Clear
12:53 PM 64.9 °F 48.9 °F 56% 29.91 in 10.0 mi NW 8.1 mph - N/A   Clear
1:53 PM 64.9 °F 50.0 °F 58% 29.93 in 10.0 mi NW 8.1 mph - N/A   Clear
2:53 PM 68.0 °F 50.0 °F 52% 30.02 in 10.0 mi Variable 5.8 mph - N/A   Clear
3:53 PM 69.8 °F 51.8 °F 53% 30.01 in 10.0 mi NE 9.2 mph - N/A   Clear
4:53 PM 68.0 °F 51.1 °F 55% 29.95 in 10.0 mi NNE 6.9 mph - N/A   Overcast
5:53 PM 64.4 °F 51.8 °F 64% 30.03 in 10.0 mi North 8.1 mph - N/A   Overcast
6:53 PM 63.0 °F 51.1 °F 65% 29.98 in 10.0 mi North 6.9 mph - N/A   Overcast
7:53 PM 63.0 °F 51.1 °F 65% 30.01 in 10.0 mi NE 6.9 mph - N/A   Overcast
8:53 PM 61.0 °F 51.1 °F 70% 30.02 in 10.0 mi NNW 6.9 mph - N/A   Overcast
9:53 PM 60.1 °F 48.9 °F 67% 30.06 in 10.0 mi NE 6.9 mph - N/A   Overcast
10:53 PM 57.9 °F 52.0 °F 81% 30.06 in 10.0 mi SW 5.8 mph - N/A   Overcast
11:53 PM 59.0 °F 52.0 °F 78% 30.06 in 10.0 mi Calm Calm - N/A   Overcast